This is the latest recevied weather packets stored in our database for station/object KD8NVS-13. If no packets are shown the sender has not sent any weather packets the latest 10 day(s).
| Time | Temp. | Humidity | Pressure | Rain* | Wind** | Luminosity | Snow |
|---|---|---|---|---|---|---|---|
| 1777302403 | 17.78° C | 69% | 1008.3 hPa | 0 mm | - | 584 W/m² | - |
| 1777302100 | 17.78° C | 73% | 1008.3 hPa | 0 mm | - | 558 W/m² | - |
| 1777301798 | 17.22° C | 73% | 1008.7 hPa | 0 mm | - | 553 W/m² | - |
| 1777301496 | 17.78° C | 70% | 1008.7 hPa | 0 mm | - | 577 W/m² | - |
| 1777301192 | 17.22° C | 71% | 1008.3 hPa | 0 mm | - | 562 W/m² | - |
| 1777300889 | 17.22° C | 73% | 1008.7 hPa | 0 mm | - | 536 W/m² | - |
| 1777300587 | 17.78° C | 73% | 1008.7 hPa | 0 mm | - | 558 W/m² | - |
| 1777300284 | 17.22° C | 71% | 1009 hPa | 0 mm | - | 525 W/m² | - |
| 1777299980 | 16.67° C | 72% | 1008.7 hPa | 0 mm | - | 534 W/m² | - |
| 1777299677 | 16.67° C | 75% | 1008.7 hPa | 0 mm | - | 523 W/m² | - |
| 1777299375 | 16.11° C | 73% | 1008.7 hPa | 0 mm | - | 508 W/m² | - |
| 1777299073 | 16.11° C | 76% | 1009 hPa | 0 mm | - | 508 W/m² | - |
| 1777298770 | 16.67° C | 75% | 1008.7 hPa | 0 mm | - | 513 W/m² | - |
| 1777298466 | 16.67° C | 73% | 1009 hPa | 0 mm | - | 487 W/m² | - |
| 1777298162 | 16.11° C | 74% | 1009 hPa | 0 mm | - | 454 W/m² | - |
| 1777297857 | 15.56° C | 75% | 1009 hPa | 0 mm | - | 442 W/m² | - |
| 1777297556 | 15° C | 77% | 1009 hPa | 0 mm | - | 418 W/m² | - |
| 1777297252 | 15° C | 76% | 1009 hPa | 0 mm | - | 419 W/m² | - |
| 1777296949 | 14.44° C | 77% | 1009 hPa | 0 mm | - | 406 W/m² | - |
| 1777296646 | 14.44° C | 78% | 1009.4 hPa | 0 mm | - | 382 W/m² | - |
| 1777296321 | 13.89° C | 80% | 1009.4 hPa | 0 mm | - | 355 W/m² | - |
| 1777296017 | 13.89° C | 79% | 1009 hPa | 0 mm | - | 205 W/m² | - |
| 1777295715 | 13.89° C | 79% | 1009 hPa | 0 mm | - | 261 W/m² | - |
| 1777295412 | 13.33° C | 79% | 1009.4 hPa | 0 mm | - | 316 W/m² | - |
| 1777295109 | 12.78° C | 81% | 1009.4 hPa | 0 mm | - | 325 W/m² | - |
* Rain latest hour (hover to see other rain measurements)
** Current wind speed in m/s (hover to see current wind gust speed)